Location: Newark
(34.9500°N, 139.9667°E)
Time: 07:07:16
(UTC+00:00)

Vanguard 1 Rocket - Pass Details

Date: 10 December 2019
Orbit: 650 x 4226 km, 34.3° (Epoch: 17 January)

Event Time Altitude Azimuth Distance (km) Brightness Sun altitude
Rises 14:36:01 0° 272° (W) 6,375 11.7 -77.9°
Enters shadow 14:36:20 - 272° (W) 6,274 11.7 -77.9°
Reaches altitude 10° 14:41:02 10° 273° (W) 4,772 - -77.8°
Maximum altitude 14:52:43 85° 186° (S) 1,293 - -77.2°
Drops below altitude 10° 14:58:46 10° 99° (E) 2,584 - -76.7°
Sets 15:00:45 0° 98° (E) 3,329 - -76.5°
